Home > Weather > Asuncion > Past weeks

Flag for Paraguay Weather for the Past 2 Weeks in Asuncion, Paraguay

Now
79 °F

Passing clouds.


Feels Like: 83 °F
Forecast: 78 / 96 °F
Wind: No wind

Location: Asuncion / Aeropuerto

Current Time: Feb 11, 2016 at 1:50:08 AM

Latest Report: Feb 11, 2016 at 1:00 AM


Visibility: N/A

Pressure: 29.89 "Hg

Humidity: 94%

Dew point: 77 °F

Location of AsuncionLocation

Historic Weather in Asuncion — Graph

°F

Asuncion Temperature Yesterday

Maximum temperature yesterday: 86 °F (at 12:00 PM)
Minimum temperature yesterday: 36 °F (at 11:00 PM)
Average temperature yesterday: 80 °F

High & Low Weather Summary for the Past Weeks

 TemperatureHumidityPressure
High99 °F (Jan 29, 2:00 PM)100% (Jan 28, 12:00 AM)30.01 "Hg (Jan 28, 12:00 AM)
Low36 °F (Feb 10, 11:00 PM)50% (Jan 29, 2:00 PM)29.68 "Hg (Jan 29, 5:00 PM)
Average81 °F80%29.86 "Hg
* Reported Jan 27 1:00 AM — Midnight between Feb 10 and Feb 11, Asuncion, Weather by CustomWeather, © 2016

Note: Actual official high and low records may vary slightly from our data, if they occured in-between our weather recording intervals... More about our weather records

Advertising

Asuncion Weather History for the Previous 24 Hours

 ConditionsComfort  
Time TempWeatherWind HumidityBarometerVisibility
12:00 AM
Thu, Feb 11
81 °FClear.No wind94%29.89 "Hg6 mi
11:00 PM
Wed, Feb 10
36 °FClear.3 mph100%29.89 "Hg5 mi
10:00 PM82 °FClear.No wind89%29.89 "Hg10 mi
9:00 PM82 °FThundershowers. Passing clouds.No wind89%29.89 "HgN/A
8:00 PM84 °FThundershowers. Passing clouds.No wind84%29.86 "HgN/A
7:00 PM86 °FPartly sunny.3 mph79%29.83 "HgN/A
6:00 PM86 °FBroken clouds.6 mph75%29.83 "HgN/A
5:00 PM86 °FPartly sunny.6 mph75%29.86 "HgN/A
4:00 PM86 °FPartly sunny.7 mph75%29.89 "HgN/A
3:00 PM86 °FBroken clouds.6 mph75%29.92 "HgN/A
2:00 PM86 °FMore clouds than sun.6 mph75%29.95 "HgN/A
1:00 PM86 °FBroken clouds.6 mph75%29.95 "HgN/A
12:00 PM86 °FPartly sunny.5 mph75%29.95 "HgN/A
11:00 AM84 °FPartly sunny.3 mph79%29.95 "HgN/A
10:30 AM84 °FPartly sunny.5 mph79%29.92 "HgN/A
10:00 AM82 °FPartly sunny.5 mph84%29.92 "HgN/A
9:30 AM82 °FSunny.6 mph84%29.95 "Hg10 mi
9:00 AM81 °FThundershowers. Partly sunny.7 mph89%29.92 "HgN/A
8:30 AM79 °FThundershowers. Partly sunny.3 mph89%29.89 "HgN/A
8:00 AM79 °FThundershowers. Partly sunny.3 mph89%29.89 "HgN/A
7:00 AM77 °FThundershowers. Partly sunny.No wind94%29.89 "HgN/A
6:00 AM75 °FThundershowers. Passing clouds.3 mph94%29.86 "HgN/A
5:00 AM77 °FThunderstorms. Passing clouds.5 mph89%29.86 "HgN/A
4:00 AM77 °FThunderstorms. Passing clouds.5 mph83%29.86 "HgN/A
3:00 AM77 °FThunderstorms. Passing clouds.6 mph83%29.86 "HgN/A
2:00 AM77 °FOvercast.5 mph83%29.92 "HgN/A
1:00 AM77 °FThundershowers. Overcast.5 mph83%29.89 "HgN/A
Weather by CustomWeather, © 2016

See weather overviewHow to use our weather pages